User: anonymous   Login
Location: Albany
(35.0000°S, 118.0000°E)
Time: 13:37:31
(UTC-05:00)
Language:

Cosmos 1758 Rocket - Orbit

View from above orbital plane
View from above orbital plane
View from above satellite
View from above satellite

Ground track
Ground track

The orbit data is extracted from the following two-line orbital elements,

1 16792U 86046B   18019.94748437 +.00000072 +00000-0 +59365-5 0  9996
2 16792 082.4830 358.4431 0022891 301.5632 082.1191 14.83165113685927
Epoch (UTC): 19 January 2018 22:44:22
Eccentricity: 0.0022891
inclination: 82.4830°
perigee height: 603 km
apogee height: 635 km
right ascension of ascending node: 358.4431°
argument of perigee: 301.5632°
revolutions per day: 14.83165113
mean anomaly at epoch: 82.1191°
orbit number at epoch: 68592

The dashed part of the orbit path shows where the satellite is in the earth's shadow,  

DLR